EB5EEV-10 Weather Reports


time (UTC)temp
F
wind
direction
speed
knots
gust
knots
rain 1hr
in
rain 24hr
in
rain mn
in
humidity
%
barometer
mb
20260508070120 58 171 0.9 0.9 0.01 0.00 0.01 8 1009.7
20260508064337 57 0 0.0 0.0 0.00 0.00 0.00 8 1009.6
20260508062556 57 111 2.6 2.6 0.00 0.00 0.00 8 1009.1
20260508060852 57 130 0.9 2.6 0.00 0.00 0.00 8 1009.2
20260508055117 0 0 0.0 0.0 0.00 0.00 0.00 100 1009.4
20260508053330 0 0 0.0 0.0 0.00 0.00 0.00 100 1009.0
20260508051451 0 0 0.0 0.0 0.00 0.00 0.00 100 1008.6
20260507181528 65 185 0.9 3.5 0.00 0.00 0.00 8 1007.9
20260507175641 66 0 0.0 2.6 0.00 0.00 0.00 8 1008.0
20260507173807 66 124 2.6 5.2 0.00 0.00 0.00 7 1007.8
20260507172102 66 106 0.9 5.2 0.00 0.00 0.00 7 1007.7
20260507170237 66 177 0.9 1.7 0.00 0.00 0.00 7 1007.7
20260507164430 66 233 3.5 3.5 0.00 0.00 0.00 7 1007.6
20260507162602 66 158 4.3 5.2 0.00 0.00 0.00 7 1007.7
20260507160809 66 140 1.7 2.6 0.00 0.00 0.00 7 1007.6
20260507155041 66 158 3.5 5.2 0.00 0.00 0.00 7 1007.4
20260507153232 66 0 0.0 3.5 0.00 0.00 0.00 7 1007.1
20260507151451 66 186 4.3 4.3 0.00 0.00 0.00 7 1007.2
20260507145801 67 219 5.2 6.1 0.00 0.00 0.00 7 1007.4
20260507144138 67 171 1.7 7.8 0.00 0.00 0.00 7 1007.5
20260507142437 68 197 1.7 7.8 0.00 0.00 0.00 7 1007.4
20260507140641 69 213 2.6 7.8 0.00 0.00 0.00 6 1007.5
20260507134902 68 250 4.3 9.6 0.00 0.00 0.00 6 1007.5
20260507133015 68 129 7.8 8.7 0.00 0.00 0.00 7 1008.0
20260507131228 69 231 5.2 6.1 0.00 0.00 0.00 7 1008.1
20260507125419 69 233 1.7 1.7 0.00 0.00 0.00 7 1008.0
20260507123542 69 333 4.3 4.3 0.00 0.00 0.00 7 1008.2
20260507121802 69 236 0.9 1.7 0.00 0.00 0.00 7 1008.2
20260507120114 68 221 5.2 5.2 0.00 0.00 0.00 7 1008.5
20260507114341 68 0 0.0 2.6 0.00 0.00 0.00 7 1008.9
20260507105933 68 225 0.9 2.6 0.00 0.00 0.00 7 1009.0
20260507104024 67 111 2.6 5.2 0.00 0.00 0.00 7 1009.0
20260507102107 67 0 0.0 4.3 0.00 0.00 0.00 7 1009.1
20260507100232 67 170 3.5 6.1 0.00 0.00 0.00 7 1009.3
20260507094352 66 135 0.9 2.6 0.00 0.00 0.00 7 1009.3
20260507085130 65 162 0.9 2.6 0.00 0.00 0.00 7 1009.4
20260507083257 0 0 0.0 0.0 0.00 0.00 0.00 100 1009.2
20260507081557 0 0 0.0 0.0 0.00 0.00 0.00 100 1009.1
20260507075815 0 0 0.0 0.0 0.00 0.00 0.00 100 1009.1